Time,TemperatureF,DewpointF,PressureIn,WindDirection,WindDirectionDegrees,WindSpeedMPH,WindSpeedGustMPH,Humidity,HourlyPrecipIn,Conditions,Clouds,dailyrainin,SolarRadiationWatts/m^2,SoftwareType,DateUTC
2013-01-31 00:04:00,31.1,25.0,30.41,NNW,329,1.0,2.0,78,0.00,,CLR,0.00,0.00,VWS V14.01,2013-01-31 08:04:00,
2013-01-31 00:09:00,30.8,24.8,30.41,NNW,329,2.0,2.0,78,0.00,,CLR,0.00,0.00,VWS V14.01,2013-01-31 08:09:00,
2013-01-31 00:14:00,30.5,24.8,30.41,NNW,329,0.0,2.0,79,0.00,,CLR,0.00,0.00,VWS V14.01,2013-01-31 08:14:00,
2013-01-31 00:19:00,30.4,24.7,30.41,NNW,329,0.0,1.0,79,0.00,,CLR,0.00,0.00,VWS V14.01,2013-01-31 08:19:00,
2013-01-31 00:24:00,30.2,24.5,30.40,NNW,329,0.0,1.0,79,0.00,,CLR,0.00,0.00,VWS V14.01,2013-01-31 08:24:00,
2013-01-31 00:29:00,29.9,24.5,30.41,NNW,329,1.0,2.0,80,0.00,,CLR,0.00,0.00,VWS V14.01,2013-01-31 08:29:00,
2013-01-31 00:34:00,29.7,24.6,30.41,NNW,329,1.0,2.0,81,0.00,,CLR,0.00,0.00,VWS V14.01,2013-01-31 08:34:00,
2013-01-31 00:39:00,29.6,24.5,30.41,NNW,329,0.0,3.0,81,0.00,,CLR,0.00,0.00,VWS V14.01,2013-01-31 08:39:00,
2013-01-31 00:44:00,29.6,24.8,30.41,NNW,329,1.0,1.0,82,0.00,,CLR,0.00,0.00,VWS V14.01,2013-01-31 08:44:00,
2013-01-31 00:49:00,29.5,24.7,30.41,NNW,329,1.0,2.0,82,0.00,,CLR,0.00,0.00,VWS V14.01,2013-01-31 08:49:00,
2013-01-31 00:54:00,29.4,24.6,30.41,NNW,329,2.0,2.0,82,0.00,,CLR,0.00,0.00,VWS V14.01,2013-01-31 08:54:00,
2013-01-31 00:59:00,29.5,25.0,30.41,NNW,329,2.0,3.0,83,0.00,,CLR,0.00,0.00,VWS V14.01,2013-01-31 08:59:00,
2013-01-31 01:04:00,29.5,25.0,30.41,NNW,329,1.0,2.0,83,0.00,,CLR,0.00,0.00,VWS V14.01,2013-01-31 09:04:00,
2013-01-31 01:09:00,29.5,25.0,30.41,NNW,329,0.0,1.0,83,0.00,,CLR,0.00,0.00,VWS V14.01,2013-01-31 09:09:00,
2013-01-31 01:14:00,29.5,25.0,30.41,NNW,329,0.0,0.0,83,0.00,,CLR,0.00,0.00,VWS V14.01,2013-01-31 09:14:00,
2013-01-31 01:19:00,29.4,24.9,30.41,NNW,329,0.0,0.0,83,0.00,,CLR,0.00,0.00,VWS V14.01,2013-01-31 09:19:00,
2013-01-31 01:24:00,29.3,24.5,30.42,NNW,329,0.0,2.0,82,0.00,,CLR,0.00,0.00,VWS V14.01,2013-01-31 09:24:00,
2013-01-31 01:29:00,29.0,24.2,30.42,NNW,329,1.0,1.0,82,0.00,,CLR,0.00,0.00,VWS V14.01,2013-01-31 09:29:00,
2013-01-31 01:34:00,28.8,24.3,30.41,NNW,329,0.0,1.0,83,0.00,,CLR,0.00,0.00,VWS V14.01,2013-01-31 09:34:00,
2013-01-31 01:39:00,28.7,24.2,30.42,NNW,329,0.0,0.0,83,0.00,,CLR,0.00,0.00,VWS V14.01,2013-01-31 09:39:00,
2013-01-31 01:44:00,28.7,24.2,30.42,NNW,329,0.0,0.0,83,0.00,,CLR,0.00,0.00,VWS V14.01,2013-01-31 09:44:00,
2013-01-31 01:49:00,28.6,24.1,30.42,NNW,329,0.0,0.0,83,0.00,,CLR,0.00,0.00,VWS V14.01,2013-01-31 09:49:00,
2013-01-31 01:54:00,28.4,23.9,30.42,NNW,329,0.0,0.0,83,0.00,,CLR,0.00,0.00,VWS V14.01,2013-01-31 09:54:00,
2013-01-31 01:59:00,28.4,24.2,30.42,NNW,329,1.0,1.0,84,0.00,,CLR,0.00,0.00,VWS V14.01,2013-01-31 09:59:00,
2013-01-31 02:04:00,28.3,24.1,30.42,NNW,329,0.0,1.0,84,0.00,,CLR,0.00,0.00,VWS V14.01,2013-01-31 10:04:00,
2013-01-31 02:09:00,28.2,24.0,30.42,NNW,329,0.0,1.0,84,0.00,,CLR,0.00,0.00,VWS V14.01,2013-01-31 10:09:00,
2013-01-31 02:14:00,28.2,24.0,30.41,NNW,329,0.0,0.0,84,0.00,,CLR,0.00,0.00,VWS V14.01,2013-01-31 10:14:00,
2013-01-31 02:19:00,28.1,23.9,30.41,NNW,329,0.0,1.0,84,0.00,,CLR,0.00,0.00,VWS V14.01,2013-01-31 10:19:00,
2013-01-31 02:24:00,28.1,24.2,30.41,NNW,329,0.0,1.0,85,0.00,,CLR,0.00,0.00,VWS V14.01,2013-01-31 10:24:00,
2013-01-31 02:29:00,28.0,24.1,30.41,NNW,329,0.0,1.0,85,0.00,,CLR,0.00,0.00,VWS V14.01,2013-01-31 10:29:00,
2013-01-31 02:34:00,28.0,24.1,30.41,NNW,329,0.0,0.0,85,0.00,,CLR,0.00,0.00,VWS V14.01,2013-01-31 10:34:00,
2013-01-31 02:39:00,27.9,24.0,30.41,NNW,329,0.0,0.0,85,0.00,,CLR,0.00,0.00,VWS V14.01,2013-01-31 10:39:00,
2013-01-31 02:44:00,27.9,24.0,30.41,NNW,329,0.0,0.0,85,0.00,,CLR,0.00,0.00,VWS V14.01,2013-01-31 10:44:00,
2013-01-31 02:49:00,27.7,23.5,30.41,NNW,329,1.0,1.0,84,0.00,,CLR,0.00,0.00,VWS V14.01,2013-01-31 10:49:00,
2013-01-31 02:54:00,27.8,23.9,30.41,NNW,329,2.0,2.0,85,0.00,,CLR,0.00,0.00,VWS V14.01,2013-01-31 10:54:00,
2013-01-31 02:59:00,27.9,24.3,30.40,NNW,329,0.0,3.0,86,0.00,,CLR,0.00,0.00,VWS V14.01,2013-01-31 10:59:00,
2013-01-31 03:04:00,28.0,24.6,30.40,NNW,329,1.0,2.0,87,0.00,,CLR,0.00,0.00,VWS V14.01,2013-01-31 11:04:00,
2013-01-31 03:09:00,28.0,24.6,30.40,NNW,329,0.0,1.0,87,0.00,,CLR,0.00,0.00,VWS V14.01,2013-01-31 11:09:00,
2013-01-31 03:14:00,28.1,24.7,30.40,NNW,329,0.0,1.0,87,0.00,,CLR,0.00,0.00,VWS V14.01,2013-01-31 11:14:00,
2013-01-31 03:19:00,28.1,24.7,30.40,NNW,329,1.0,2.0,87,0.00,,CLR,0.00,0.00,VWS V14.01,2013-01-31 11:19:00,
2013-01-31 03:24:00,28.5,25.4,30.40,NNW,329,0.0,2.0,88,0.00,,CLR,0.00,0.00,VWS V14.01,2013-01-31 11:24:00,
2013-01-31 03:29:00,27.0,23.1,30.40,SSE,164,1.0,3.0,85,0.00,,CLR,0.00,0.00,VWS V14.01,2013-01-31 11:29:00,
2013-01-31 03:34:00,26.7,23.1,30.40,SSE,164,0.0,1.0,86,0.00,,CLR,0.00,0.00,VWS V14.01,2013-01-31 11:34:00,
2013-01-31 03:39:00,26.6,22.7,30.40,SSE,164,0.0,0.0,85,0.00,,CLR,0.00,0.00,VWS V14.01,2013-01-31 11:39:00,
2013-01-31 03:44:00,26.5,22.9,30.40,SSE,164,0.0,0.0,86,0.00,,CLR,0.00,0.00,VWS V14.01,2013-01-31 11:44:00,
2013-01-31 03:49:00,26.4,22.5,30.40,SSE,164,0.0,0.0,85,0.00,,CLR,0.00,0.00,VWS V14.01,2013-01-31 11:49:00,
2013-01-31 03:54:00,26.2,22.3,30.40,SSE,164,0.0,0.0,85,0.00,,CLR,0.00,0.00,VWS V14.01,2013-01-31 11:54:00,
2013-01-31 03:59:00,25.9,22.0,30.40,SSE,164,0.0,0.0,85,0.00,,CLR,0.00,0.00,VWS V14.01,2013-01-31 11:59:00,
2013-01-31 04:04:00,25.7,21.8,30.40,SSE,164,0.0,0.0,85,0.00,,CLR,0.00,0.00,VWS V14.01,2013-01-31 12:04:00,
2013-01-31 04:09:00,25.6,21.7,30.40,SSE,164,0.0,0.0,85,0.00,,CLR,0.00,0.00,VWS V14.01,2013-01-31 12:09:00,
2013-01-31 04:14:00,25.5,21.9,30.40,SSE,164,0.0,0.0,86,0.00,,CLR,0.00,0.00,VWS V14.01,2013-01-31 12:14:00,
2013-01-31 04:19:00,25.4,21.8,30.40,SSE,164,0.0,0.0,86,0.00,,CLR,0.00,0.00,VWS V14.01,2013-01-31 12:19:00,
2013-01-31 04:24:00,25.5,22.2,30.40,SSE,164,0.0,1.0,87,0.00,,CLR,0.00,0.00,VWS V14.01,2013-01-31 12:24:00,
2013-01-31 04:29:00,25.5,22.2,30.40,SSE,164,0.0,1.0,87,0.00,,CLR,0.00,0.00,VWS V14.01,2013-01-31 12:29:00,
2013-01-31 04:34:00,25.4,22.1,30.40,SSE,164,0.0,0.0,87,0.00,,CLR,0.00,0.00,VWS V14.01,2013-01-31 12:34:00,
2013-01-31 04:39:00,25.3,22.0,30.40,SSE,164,0.0,0.0,87,0.00,,CLR,0.00,0.00,VWS V14.01,2013-01-31 12:39:00,
2013-01-31 04:44:00,25.1,21.8,30.41,SSE,164,0.0,0.0,87,0.00,,CLR,0.00,0.00,VWS V14.01,2013-01-31 12:44:00,
2013-01-31 04:49:00,24.9,21.6,30.41,SSE,164,0.0,0.0,87,0.00,,CLR,0.00,0.00,VWS V14.01,2013-01-31 12:49:00,
2013-01-31 04:54:00,24.8,21.5,30.41,SSE,164,0.0,0.0,87,0.00,,CLR,0.00,0.00,VWS V14.01,2013-01-31 12:54:00,
2013-01-31 04:59:00,24.7,21.1,30.41,SSE,164,0.0,0.0,86,0.00,,CLR,0.00,0.00,VWS V14.01,2013-01-31 12:59:00,
2013-01-31 05:04:00,24.6,21.0,30.41,SSE,164,0.0,0.0,86,0.00,,CLR,0.00,0.00,VWS V14.01,2013-01-31 13:04:00,
2013-01-31 05:09:00,24.5,20.9,30.41,SSE,164,0.0,0.0,86,0.00,,CLR,0.00,0.00,VWS V14.01,2013-01-31 13:09:00,
2013-01-31 05:14:00,24.4,21.1,30.41,SSE,164,0.0,1.0,87,0.00,,CLR,0.00,0.00,VWS V14.01,2013-01-31 13:14:00,
2013-01-31 05:19:00,24.4,21.1,30.40,SSE,164,0.0,0.0,87,0.00,,CLR,0.00,0.00,VWS V14.01,2013-01-31 13:19:00,
2013-01-31 05:24:00,24.3,21.0,30.40,SSE,164,0.0,0.0,87,0.00,,CLR,0.00,0.00,VWS V14.01,2013-01-31 13:24:00,
2013-01-31 05:29:00,24.2,20.9,30.40,SSE,164,0.0,0.0,87,0.00,,CLR,0.00,0.00,VWS V14.01,2013-01-31 13:29:00,
2013-01-31 05:34:00,24.2,20.9,30.40,SSE,164,0.0,0.0,87,0.00,,CLR,0.00,0.00,VWS V14.01,2013-01-31 13:34:00,
2013-01-31 05:39:00,24.1,21.1,30.40,SSE,164,0.0,0.0,88,0.00,,CLR,0.00,0.00,VWS V14.01,2013-01-31 13:39:00,
2013-01-31 05:44:00,24.0,21.0,30.40,SSE,164,0.0,0.0,88,0.00,,CLR,0.00,0.00,VWS V14.01,2013-01-31 13:44:00,
2013-01-31 05:49:00,23.9,20.9,30.40,SSE,164,0.0,0.0,88,0.00,,CLR,0.00,0.00,VWS V14.01,2013-01-31 13:49:00,
2013-01-31 05:54:00,23.9,20.9,30.40,SSE,164,0.0,0.0,88,0.00,,CLR,0.00,0.00,VWS V14.01,2013-01-31 13:54:00,
2013-01-31 05:59:00,23.8,20.8,30.40,SSE,164,0.0,0.0,88,0.00,,CLR,0.00,0.00,VWS V14.01,2013-01-31 13:59:00,
2013-01-31 06:04:00,23.8,20.8,30.40,SSE,164,0.0,0.0,88,0.00,,CLR,0.00,0.00,VWS V14.01,2013-01-31 14:04:00,
2013-01-31 06:09:00,23.6,20.6,30.40,SSE,164,0.0,0.0,88,0.00,,CLR,0.00,0.00,VWS V14.01,2013-01-31 14:09:00,
2013-01-31 06:14:00,23.6,20.6,30.40,SSE,164,0.0,1.0,88,0.00,,CLR,0.00,0.00,VWS V14.01,2013-01-31 14:14:00,
2013-01-31 06:19:00,23.5,20.5,30.40,SSE,164,0.0,0.0,88,0.00,,CLR,0.00,0.00,VWS V14.01,2013-01-31 14:19:00,
2013-01-31 06:24:00,23.5,20.5,30.40,West,269,2.0,2.0,88,0.00,,CLR,0.00,0.00,VWS V14.01,2013-01-31 14:24:00,
2013-01-31 06:29:00,23.4,20.6,30.40,West,269,0.0,2.0,89,0.00,,FEW280,0.00,0.00,VWS V14.01,2013-01-31 14:29:00,
2013-01-31 06:34:00,23.4,20.6,30.40,West,269,0.0,0.0,89,0.00,,FEW280,0.00,0.00,VWS V14.01,2013-01-31 14:34:00,
2013-01-31 06:39:00,23.3,20.5,30.40,West,269,0.0,0.0,89,0.00,,FEW280,0.00,0.00,VWS V14.01,2013-01-31 14:39:00,
2013-01-31 06:45:00,23.2,20.5,30.40,West,269,0.0,0.0,89,0.00,,FEW280,0.00,0.00,VWS V14.01,2013-01-31 14:45:00,
2013-01-31 06:50:00,23.1,20.4,30.40,West,269,0.0,1.0,89,0.00,,FEW280,0.00,0.00,VWS V14.01,2013-01-31 14:50:00,
2013-01-31 06:55:00,23.0,20.2,30.40,West,269,0.0,0.0,89,0.00,,FEW280,0.00,0.00,VWS V14.01,2013-01-31 14:55:00,
2013-01-31 07:00:00,22.8,19.8,30.40,West,269,0.0,0.0,88,0.00,,FEW280,0.00,0.00,VWS V14.01,2013-01-31 15:00:00,
2013-01-31 07:05:00,22.5,19.5,30.40,West,269,0.0,1.0,88,0.00,,SCT280,0.00,5.00,VWS V14.01,2013-01-31 15:05:00,
2013-01-31 07:10:00,22.5,19.5,30.40,West,269,0.0,0.0,88,0.00,,SCT280,0.00,7.00,VWS V14.01,2013-01-31 15:10:00,
2013-01-31 07:15:00,22.5,19.8,30.40,West,269,0.0,0.0,89,0.00,,SCT280,0.00,11.00,VWS V14.01,2013-01-31 15:15:00,
2013-01-31 07:20:00,23.2,20.5,30.39,West,269,0.0,0.0,89,0.00,,SCT280,0.00,12.00,VWS V14.01,2013-01-31 15:20:00,
2013-01-31 07:25:00,23.7,21.2,30.39,West,269,0.0,0.0,90,0.00,,SCT280,0.00,14.00,VWS V14.01,2013-01-31 15:25:00,
2013-01-31 07:30:00,23.7,20.9,30.41,West,269,0.0,0.0,89,0.00,,SCT280,0.00,16.00,VWS V14.01,2013-01-31 15:30:00,
2013-01-31 07:35:00,23.9,21.1,30.41,West,269,0.0,0.0,89,0.00,,SCT280,0.00,19.00,VWS V14.01,2013-01-31 15:35:00,
2013-01-31 07:40:00,24.5,21.7,30.38,West,269,0.0,1.0,89,0.00,,SCT280,0.00,37.00,VWS V14.01,2013-01-31 15:40:00,
2013-01-31 07:45:00,25.3,22.5,30.37,West,269,0.0,0.0,89,0.00,,SCT280,0.00,58.00,VWS V14.01,2013-01-31 15:45:00,
2013-01-31 07:50:00,26.3,23.5,30.38,West,269,1.0,2.0,89,0.00,,SCT280,0.00,72.00,VWS V14.01,2013-01-31 15:50:00,
2013-01-31 07:55:00,26.8,24.0,30.41,West,269,0.0,1.0,89,0.00,,SCT280,0.00,88.00,VWS V14.01,2013-01-31 15:55:00,
2013-01-31 08:00:00,28.3,25.5,30.41,West,269,0.0,0.0,89,0.00,,SCT280,0.00,104.00,VWS V14.01,2013-01-31 16:00:00,
2013-01-31 08:05:00,29.6,26.5,30.41,West,269,0.0,0.0,88,0.00,,SCT280,0.00,114.00,VWS V14.01,2013-01-31 16:05:00,
2013-01-31 08:10:00,29.7,26.3,30.41,West,269,0.0,0.0,87,0.00,,SCT280,0.00,132.00,VWS V14.01,2013-01-31 16:10:00,
2013-01-31 08:15:00,29.8,26.1,30.41,West,269,0.0,1.0,86,0.00,,SCT280,0.00,142.00,VWS V14.01,2013-01-31 16:15:00,
2013-01-31 08:20:00,30.1,26.7,30.41,West,269,0.0,1.0,87,0.00,,SCT280,0.00,165.00,VWS V14.01,2013-01-31 16:20:00,
2013-01-31 08:25:00,30.9,27.8,30.41,West,269,0.0,1.0,88,0.00,,SCT280,0.00,174.00,VWS V14.01,2013-01-31 16:25:00,
2013-01-31 08:30:00,31.7,28.0,30.41,West,269,0.0,2.0,86,0.00,,SCT280,0.00,183.00,VWS V14.01,2013-01-31 16:30:00,
2013-01-31 08:35:00,32.4,28.4,30.41,West,269,0.0,1.0,85,0.00,,SCT280,0.00,171.00,VWS V14.01,2013-01-31 16:35:00,
2013-01-31 08:40:00,33.6,29.6,30.41,West,269,0.0,1.0,85,0.00,,SCT280,0.00,211.00,VWS V14.01,2013-01-31 16:40:00,
2013-01-31 08:45:00,34.4,29.5,30.41,West,269,0.0,0.0,82,0.00,,SCT280,0.00,223.00,VWS V14.01,2013-01-31 16:45:00,
2013-01-31 08:50:00,35.4,29.9,30.41,West,269,0.0,0.0,80,0.00,,SCT280,0.00,237.00,VWS V14.01,2013-01-31 16:50:00,
2013-01-31 08:55:00,36.3,30.4,30.41,West,269,1.0,1.0,79,0.00,,SCT280,0.00,255.00,VWS V14.01,2013-01-31 16:55:00,
2013-01-31 09:00:00,36.9,30.7,30.41,West,269,0.0,1.0,78,0.00,,SCT280,0.00,267.00,VWS V14.01,2013-01-31 17:00:00,
2013-01-31 09:05:00,37.2,30.7,30.42,South,170,1.0,2.0,77,0.00,,BKN280,0.00,283.00,VWS V14.01,2013-01-31 17:05:00,
2013-01-31 09:10:00,37.7,31.1,30.42,South,170,1.0,1.0,77,0.00,,BKN280,0.00,301.00,VWS V14.01,2013-01-31 17:10:00,
2013-01-31 09:15:00,38.7,31.5,30.42,South,170,0.0,2.0,75,0.00,,BKN280,0.00,313.00,VWS V14.01,2013-01-31 17:15:00,
2013-01-31 09:20:00,39.7,31.4,30.41,South,170,0.0,1.0,72,0.00,,BKN280,0.00,306.00,VWS V14.01,2013-01-31 17:20:00,
2013-01-31 09:25:00,39.4,31.5,30.41,South,170,0.0,2.0,73,0.00,,BKN280,0.00,336.00,VWS V14.01,2013-01-31 17:25:00,
2013-01-31 09:30:00,40.7,31.7,30.41,South,170,0.0,1.0,70,0.00,,BKN280,0.00,348.00,VWS V14.01,2013-01-31 17:30:00,
2013-01-31 09:35:00,41.2,31.8,30.41,South,170,1.0,3.0,69,0.00,,BKN280,0.00,359.00,VWS V14.01,2013-01-31 17:35:00,
2013-01-31 09:40:00,40.8,31.4,30.41,South,170,0.0,2.0,69,0.00,,BKN280,0.00,371.00,VWS V14.01,2013-01-31 17:40:00,
2013-01-31 09:45:00,41.6,32.2,30.42,South,170,0.0,2.0,69,0.00,,BKN280,0.00,360.00,VWS V14.01,2013-01-31 17:45:00,
2013-01-31 09:50:00,42.5,31.6,30.41,South,170,0.0,1.0,65,0.00,,BKN280,0.00,397.00,VWS V14.01,2013-01-31 17:50:00,
2013-01-31 09:55:00,42.6,32.8,30.41,South,170,0.0,1.0,68,0.00,,BKN280,0.00,411.00,VWS V14.01,2013-01-31 17:55:00,
2013-01-31 10:00:00,43.0,32.4,30.41,South,170,2.0,2.0,66,0.00,,BKN280,0.00,417.00,VWS V14.01,2013-01-31 18:00:00,
2013-01-31 10:05:00,43.4,32.8,30.41,ESE,107,1.0,3.0,66,0.00,,SCT280,0.00,420.00,VWS V14.01,2013-01-31 18:05:00,
2013-01-31 10:10:00,44.0,32.6,30.41,ESE,107,0.0,2.0,64,0.00,,SCT280,0.00,429.00,VWS V14.01,2013-01-31 18:10:00,
2013-01-31 10:15:00,44.1,32.7,30.41,ESE,107,1.0,3.0,64,0.00,,SCT280,0.00,439.00,VWS V14.01,2013-01-31 18:15:00,
2013-01-31 10:20:00,45.2,33.4,30.41,ESE,107,0.0,3.0,63,0.00,,SCT280,0.00,462.00,VWS V14.01,2013-01-31 18:20:00,
2013-01-31 10:25:00,45.4,33.2,30.41,ESE,111,0.0,0.0,62,0.00,,SCT280,0.00,476.00,VWS V14.01,2013-01-31 18:25:00,
2013-01-31 10:30:00,45.8,33.5,30.41,East,83,2.0,3.0,62,0.00,,SCT280,0.00,476.00,VWS V14.01,2013-01-31 18:30:00,
2013-01-31 10:35:00,45.4,32.8,30.41,East,90,0.0,5.0,61,0.00,,SCT280,0.00,401.00,VWS V14.01,2013-01-31 18:35:00,
2013-01-31 10:40:00,45.7,32.6,30.41,ENE,59,2.0,3.0,60,0.00,,SCT280,0.00,483.00,VWS V14.01,2013-01-31 18:40:00,
2013-01-31 10:45:00,46.5,33.4,30.41,NE,38,1.0,1.0,60,0.00,,SCT280,0.00,492.00,VWS V14.01,2013-01-31 18:45:00,
2013-01-31 10:50:00,45.8,33.1,30.40,ENE,71,4.0,4.0,61,0.00,,SCT280,0.00,476.00,VWS V14.01,2013-01-31 18:50:00,
2013-01-31 10:55:00,46.0,32.5,30.40,ENE,69,3.0,3.0,59,0.00,,SCT280,0.00,497.00,VWS V14.01,2013-01-31 18:55:00,
2013-01-31 11:00:00,45.9,32.8,30.40,ENE,57,2.0,2.0,60,0.00,,SCT280,0.00,508.00,VWS V14.01,2013-01-31 19:00:00,
2013-01-31 11:05:00,46.5,33.4,30.39,ESE,102,2.0,2.0,60,0.00,,SCT280,0.00,513.00,VWS V14.01,2013-01-31 19:05:00,
2013-01-31 11:10:00,47.0,33.0,30.39,East,87,0.0,0.0,58,0.00,,SCT280,0.00,519.00,VWS V14.01,2013-01-31 19:10:00,
2013-01-31 11:15:00,47.2,33.2,30.39,ENE,59,0.0,0.0,58,0.00,,SCT280,0.00,524.00,VWS V14.01,2013-01-31 19:15:00,
2013-01-31 11:20:00,48.3,33.8,30.39,East,98,1.0,1.0,57,0.00,,SCT280,0.00,529.00,VWS V14.01,2013-01-31 19:20:00,
2013-01-31 11:25:00,48.7,33.7,30.38,East,101,3.0,3.0,56,0.00,,SCT280,0.00,534.00,VWS V14.01,2013-01-31 19:25:00,
2013-01-31 11:30:00,48.1,33.6,30.38,East,101,5.0,6.0,57,0.00,,SCT280,0.00,536.00,VWS V14.01,2013-01-31 19:30:00,
2013-01-31 11:35:00,49.1,33.7,30.38,ENE,73,2.0,3.0,55,0.00,,SCT280,0.00,541.00,VWS V14.01,2013-01-31 19:35:00,
2013-01-31 11:40:00,49.2,33.3,30.37,SE,144,0.0,0.0,54,0.00,,SCT280,0.00,545.00,VWS V14.01,2013-01-31 19:40:00,
2013-01-31 11:45:00,49.7,32.8,30.37,ENE,68,1.0,1.0,52,0.00,,SCT280,0.00,545.00,VWS V14.01,2013-01-31 19:45:00,
2013-01-31 11:50:00,50.0,33.6,30.37,SE,144,2.0,2.0,53,0.00,,SCT280,0.00,548.00,VWS V14.01,2013-01-31 19:50:00,
2013-01-31 11:55:00,50.5,33.5,30.36,East,86,1.0,2.0,52,0.00,,SCT280,0.00,548.00,VWS V14.01,2013-01-31 19:55:00,
2013-01-31 12:00:00,50.9,33.4,30.36,ESE,117,1.0,3.0,51,0.00,,SCT280,0.00,550.00,VWS V14.01,2013-01-31 20:00:00,
2013-01-31 12:05:00,50.6,33.2,30.36,ESE,117,0.0,0.0,51,0.00,,SCT280,0.00,550.00,VWS V14.01,2013-01-31 20:05:00,
2013-01-31 12:10:00,51.2,33.2,30.35,SSE,167,0.0,1.0,50,0.00,,SCT280,0.00,548.00,VWS V14.01,2013-01-31 20:10:00,
2013-01-31 12:15:00,52.1,33.5,30.34,East,96,0.0,0.0,49,0.00,,SCT280,0.00,552.00,VWS V14.01,2013-01-31 20:15:00,
2013-01-31 12:20:00,51.4,32.9,30.34,SSE,160,2.0,2.0,49,0.00,,SCT280,0.00,552.00,VWS V14.01,2013-01-31 20:20:00,
2013-01-31 12:25:00,51.7,33.7,30.34,ESE,106,4.0,4.0,50,0.00,,SCT280,0.00,552.00,VWS V14.01,2013-01-31 20:25:00,
2013-01-31 12:30:00,51.8,33.3,30.33,SSE,153,4.0,6.0,49,0.00,,SCT280,0.00,552.00,VWS V14.01,2013-01-31 20:30:00,
2013-01-31 12:35:00,52.2,33.6,30.33,South,169,4.0,4.0,49,0.00,,SCT280,0.00,550.00,VWS V14.01,2013-01-31 20:35:00,
2013-01-31 12:40:00,52.7,33.6,30.32,SSE,168,4.0,5.0,48,0.00,,SCT280,0.00,548.00,VWS V14.01,2013-01-31 20:40:00,
2013-01-31 12:45:00,53.0,33.3,30.32,SW,225,2.0,2.0,47,0.00,,SCT280,0.00,547.00,VWS V14.01,2013-01-31 20:45:00,
2013-01-31 12:50:00,52.8,33.2,30.32,SSW,194,2.0,4.0,47,0.00,,SCT280,0.00,541.00,VWS V14.01,2013-01-31 20:50:00,
2013-01-31 12:55:00,53.1,33.4,30.32,SE,136,4.0,6.0,47,0.00,,SCT280,0.00,540.00,VWS V14.01,2013-01-31 20:55:00,
2013-01-31 13:00:00,53.3,33.6,30.32,SSW,192,5.0,6.0,47,0.00,,FEW280,0.00,534.00,VWS V14.01,2013-01-31 21:00:00,
2013-01-31 13:05:00,53.6,33.9,30.31,SSE,161,7.0,8.0,47,0.00,,FEW280,0.00,529.00,VWS V14.01,2013-01-31 21:05:00,
2013-01-31 13:10:00,53.7,32.9,30.31,SSE,159,1.0,2.0,45,0.00,,FEW280,0.00,529.00,VWS V14.01,2013-01-31 21:10:00,
2013-01-31 13:15:00,53.4,33.2,30.30,SSW,193,4.0,4.0,46,0.00,,FEW280,0.00,524.00,VWS V14.01,2013-01-31 21:15:00,
2013-01-31 13:20:00,54.2,33.3,30.30,South,188,2.0,4.0,45,0.00,,FEW280,0.00,519.00,VWS V14.01,2013-01-31 21:20:00,
2013-01-31 13:25:00,54.2,33.3,30.30,SSW,211,4.0,7.0,45,0.00,,FEW280,0.00,513.00,VWS V14.01,2013-01-31 21:25:00,
2013-01-31 13:30:00,54.2,33.3,30.30,SSE,157,5.0,5.0,45,0.00,,FEW280,0.00,508.00,VWS V14.01,2013-01-31 21:30:00,
2013-01-31 13:35:00,54.8,33.3,30.29,SSE,159,7.0,7.0,44,0.00,,FEW280,0.00,501.00,VWS V14.01,2013-01-31 21:35:00,
2013-01-31 13:40:00,54.8,33.3,30.29,SSE,163,2.0,5.0,44,0.00,,FEW280,0.00,494.00,VWS V14.01,2013-01-31 21:40:00,
2013-01-31 13:45:00,54.7,33.2,30.29,SSW,210,5.0,5.0,44,0.00,,FEW280,0.00,489.00,VWS V14.01,2013-01-31 21:45:00,
2013-01-31 13:50:00,55.2,33.7,30.28,SSE,148,2.0,2.0,44,0.00,,FEW280,0.00,482.00,VWS V14.01,2013-01-31 21:50:00,
2013-01-31 13:55:00,55.6,34.0,30.28,South,182,4.0,7.0,44,0.00,,FEW280,0.00,473.00,VWS V14.01,2013-01-31 21:55:00,
2013-01-31 14:00:00,55.8,33.1,30.28,South,182,5.0,6.0,42,0.00,,FEW280,0.00,464.00,VWS V14.01,2013-01-31 22:00:00,
2013-01-31 14:05:00,55.8,33.7,30.27,South,188,8.0,8.0,43,0.00,,FEW280,0.00,457.00,VWS V14.01,2013-01-31 22:05:00,
2013-01-31 14:10:00,56.4,33.6,30.27,SSW,203,7.0,10.0,42,0.00,,FEW280,0.00,450.00,VWS V14.01,2013-01-31 22:10:00,
2013-01-31 14:15:00,55.9,33.8,30.27,SW,227,4.0,5.0,43,0.00,,FEW280,0.00,439.00,VWS V14.01,2013-01-31 22:15:00,
2013-01-31 14:20:00,55.9,33.2,30.27,South,186,10.0,10.0,42,0.00,,FEW280,0.00,431.00,VWS V14.01,2013-01-31 22:20:00,
2013-01-31 14:25:00,56.1,33.3,30.27,SSE,165,6.0,7.0,42,0.00,,FEW280,0.00,420.00,VWS V14.01,2013-01-31 22:25:00,
2013-01-31 14:30:00,55.8,33.1,30.27,South,171,3.0,3.0,42,0.00,,FEW280,0.00,410.00,VWS V14.01,2013-01-31 22:30:00,
2013-01-31 14:35:00,55.6,33.5,30.26,SSW,196,0.0,0.0,43,0.00,,FEW280,0.00,401.00,VWS V14.01,2013-01-31 22:35:00,
2013-01-31 14:40:00,56.2,33.4,30.27,SSE,159,3.0,3.0,42,0.00,,FEW280,0.00,388.00,VWS V14.01,2013-01-31 22:40:00,
2013-01-31 14:45:00,56.4,33.6,30.26,SE,130,1.0,2.0,42,0.00,,FEW280,0.00,378.00,VWS V14.01,2013-01-31 22:45:00,
2013-01-31 14:50:00,56.6,33.2,30.26,South,177,5.0,5.0,41,0.00,,FEW280,0.00,338.00,VWS V14.01,2013-01-31 22:50:00,
2013-01-31 14:55:00,56.3,33.5,30.26,ESE,118,4.0,4.0,42,0.00,,FEW280,0.00,355.00,VWS V14.01,2013-01-31 22:55:00,
2013-01-31 15:00:00,56.0,33.2,30.26,SE,135,0.0,0.0,42,0.00,,FEW250,0.00,320.00,VWS V14.01,2013-01-31 23:00:00,
2013-01-31 15:05:00,56.0,33.2,30.26,ESE,111,0.0,0.0,42,0.00,,FEW250,0.00,330.00,VWS V14.01,2013-01-31 23:05:00,
2013-01-31 15:10:00,56.7,33.3,30.26,ESE,113,4.0,4.0,41,0.00,,FEW250,0.00,316.00,VWS V14.01,2013-01-31 23:10:00,
2013-01-31 15:15:00,56.4,33.0,30.26,South,171,1.0,2.0,41,0.00,,FEW250,0.00,304.00,VWS V14.01,2013-01-31 23:15:00,
2013-01-31 15:20:00,56.4,33.0,30.25,ENE,75,2.0,2.0,41,0.00,,FEW250,0.00,290.00,VWS V14.01,2013-01-31 23:20:00,
2013-01-31 15:25:00,55.5,33.4,30.25,SE,130,1.0,3.0,43,0.00,,FEW250,0.00,260.00,VWS V14.01,2013-01-31 23:25:00,
2013-01-31 15:30:00,56.4,33.6,30.25,ESE,109,2.0,2.0,42,0.00,,FEW250,0.00,239.00,VWS V14.01,2013-01-31 23:30:00,
2013-01-31 15:35:00,56.6,33.8,30.25,East,90,3.0,3.0,42,0.00,,FEW250,0.00,221.00,VWS V14.01,2013-01-31 23:35:00,
2013-01-31 15:40:00,55.7,33.0,30.25,East,81,1.0,1.0,42,0.00,,FEW250,0.00,202.00,VWS V14.01,2013-01-31 23:40:00,
2013-01-31 15:45:00,55.3,33.2,30.25,ENE,58,2.0,2.0,43,0.00,,FEW250,0.00,197.00,VWS V14.01,2013-01-31 23:45:00,
2013-01-31 15:50:00,55.3,33.2,30.25,East,86,3.0,3.0,43,0.00,,FEW250,0.00,172.00,VWS V14.01,2013-01-31 23:50:00,
2013-01-31 15:55:00,55.4,33.3,30.25,NE,39,5.0,6.0,43,0.00,,FEW250,0.00,158.00,VWS V14.01,2013-01-31 23:55:00,
2013-01-31 16:00:00,55.1,33.0,30.25,NE,44,4.0,4.0,43,0.00,,FEW250,0.00,142.00,VWS V14.01,2013-02-01 00:00:00,
2013-01-31 16:05:00,55.1,33.0,30.25,NE,55,3.0,4.0,43,0.00,,FEW250,0.00,127.00,VWS V14.01,2013-02-01 00:05:00,
2013-01-31 16:10:00,55.0,32.9,30.25,ENE,71,1.0,4.0,43,0.00,,FEW250,0.00,116.00,VWS V14.01,2013-02-01 00:10:00,
2013-01-31 16:15:00,54.8,32.8,30.25,NE,43,4.0,4.0,43,0.00,,FEW250,0.00,100.00,VWS V14.01,2013-02-01 00:15:00,
2013-01-31 16:20:00,54.7,32.7,30.25,ENE,61,3.0,3.0,43,0.00,,FEW250,0.00,84.00,VWS V14.01,2013-02-01 00:20:00,
2013-01-31 16:25:00,54.5,33.0,30.26,NE,37,2.0,3.0,44,0.00,,FEW250,0.00,69.00,VWS V14.01,2013-02-01 00:25:00,
2013-01-31 16:30:00,54.2,32.8,30.25,NE,49,3.0,3.0,44,0.00,,FEW250,0.00,60.00,VWS V14.01,2013-02-01 00:30:00,
2013-01-31 16:35:00,54.2,32.8,30.25,NE,36,4.0,5.0,44,0.00,,FEW250,0.00,44.00,VWS V14.01,2013-02-01 00:35:00,
2013-01-31 16:40:00,54.0,32.6,30.25,NE,49,3.0,3.0,44,0.00,,FEW250,0.00,30.00,VWS V14.01,2013-02-01 00:40:00,
2013-01-31 16:45:00,53.6,32.2,30.25,NE,38,1.0,1.0,44,0.00,,FEW250,0.00,21.00,VWS V14.01,2013-02-01 00:45:00,
2013-01-31 16:50:00,53.4,32.0,30.25,NE,36,2.0,3.0,44,0.00,,FEW250,0.00,18.00,VWS V14.01,2013-02-01 00:50:00,
2013-01-31 16:55:00,52.9,32.2,30.25,NE,36,1.0,2.0,45,0.00,,FEW250,0.00,16.00,VWS V14.01,2013-02-01 00:55:00,
2013-01-31 17:00:00,52.2,32.1,30.25,NE,36,2.0,2.0,46,0.00,,FEW250,0.00,12.00,VWS V14.01,2013-02-01 01:00:00,
2013-01-31 17:05:00,51.8,31.7,30.25,NE,36,2.0,2.0,46,0.00,,FEW250,0.00,9.00,VWS V14.01,2013-02-01 01:05:00,
2013-01-31 17:10:00,51.3,31.8,30.25,NE,36,0.0,0.0,47,0.00,,FEW250,0.00,7.00,VWS V14.01,2013-02-01 01:10:00,
2013-01-31 17:15:00,50.9,31.4,30.25,NE,36,1.0,1.0,47,0.00,,FEW250,0.00,5.00,VWS V14.01,2013-02-01 01:15:00,
2013-01-31 17:20:00,50.4,31.5,30.25,NE,36,0.0,1.0,48,0.00,,FEW250,0.00,0.00,VWS V14.01,2013-02-01 01:20:00,
2013-01-31 17:25:00,49.9,31.5,30.25,NE,36,1.0,2.0,49,0.00,,FEW250,0.00,0.00,VWS V14.01,2013-02-01 01:25:00,
2013-01-31 17:30:00,49.3,31.0,30.26,NE,35,1.0,3.0,49,0.00,,FEW250,0.00,0.00,VWS V14.01,2013-02-01 01:30:00,
2013-01-31 17:35:00,48.5,30.7,30.26,NE,40,2.0,3.0,50,0.00,,FEW250,0.00,0.00,VWS V14.01,2013-02-01 01:35:00,
2013-01-31 17:40:00,47.7,31.0,30.26,NE,55,1.0,2.0,52,0.00,,FEW250,0.00,0.00,VWS V14.01,2013-02-01 01:40:00,
2013-01-31 17:45:00,47.2,31.0,30.26,NE,55,1.0,2.0,53,0.00,,FEW250,0.00,0.00,VWS V14.01,2013-02-01 01:45:00,
2013-01-31 17:50:00,46.9,31.1,30.26,NE,55,0.0,1.0,54,0.00,,FEW250,0.00,0.00,VWS V14.01,2013-02-01 01:50:00,
2013-01-31 17:55:00,46.8,32.0,30.26,ENE,77,0.0,2.0,56,0.00,,FEW250,0.00,0.00,VWS V14.01,2013-02-01 01:55:00,
2013-01-31 18:00:00,46.7,32.3,30.26,ENE,77,0.0,1.0,57,0.00,,FEW250,0.00,0.00,VWS V14.01,2013-02-01 02:00:00,
2013-01-31 18:05:00,46.5,32.1,30.26,ENE,77,0.0,1.0,57,0.00,,FEW250,0.00,0.00,VWS V14.01,2013-02-01 02:05:00,
2013-01-31 18:10:00,46.1,32.2,30.27,ENE,77,1.0,1.0,58,0.00,,FEW250,0.00,0.00,VWS V14.01,2013-02-01 02:10:00,
2013-01-31 18:15:00,45.6,32.1,30.27,ENE,77,1.0,1.0,59,0.00,,FEW250,0.00,0.00,VWS V14.01,2013-02-01 02:15:00,
2013-01-31 18:20:00,45.3,32.2,30.27,ENE,77,0.0,0.0,60,0.00,,FEW250,0.00,0.00,VWS V14.01,2013-02-01 02:20:00,
2013-01-31 18:25:00,44.9,31.9,30.27,ENE,77,0.0,1.0,60,0.00,,FEW250,0.00,0.00,VWS V14.01,2013-02-01 02:25:00,
2013-01-31 18:30:00,44.5,31.9,30.27,ENE,77,0.0,1.0,61,0.00,,FEW250,0.00,0.00,VWS V14.01,2013-02-01 02:30:00,
2013-01-31 18:35:00,44.1,31.9,30.27,ENE,77,0.0,2.0,62,0.00,,FEW250,0.00,0.00,VWS V14.01,2013-02-01 02:35:00,
2013-01-31 18:40:00,43.6,31.9,30.27,ENE,77,1.0,1.0,63,0.00,,FEW250,0.00,0.00,VWS V14.01,2013-02-01 02:40:00,
2013-01-31 18:45:00,43.2,31.9,30.27,ENE,77,1.0,2.0,64,0.00,,FEW250,0.00,0.00,VWS V14.01,2013-02-01 02:45:00,
2013-01-31 18:51:00,42.9,31.6,30.27,ENE,77,1.0,1.0,64,0.00,,FEW250,0.00,0.00,VWS V14.01,2013-02-01 02:51:00,
2013-01-31 18:56:00,42.5,31.6,30.27,ENE,77,0.0,0.0,65,0.00,,FEW250,0.00,0.00,VWS V14.01,2013-02-01 02:56:00,
2013-01-31 19:01:00,42.4,31.5,30.27,ENE,77,0.0,0.0,65,0.00,,CLR,0.00,0.00,VWS V14.01,2013-02-01 03:01:00,
2013-01-31 19:06:00,42.3,31.4,30.27,ENE,77,0.0,0.0,65,0.00,,CLR,0.00,0.00,VWS V14.01,2013-02-01 03:06:00,
2013-01-31 19:11:00,41.9,30.2,30.27,ENE,77,0.0,0.0,63,0.00,,CLR,0.00,0.00,VWS V14.01,2013-02-01 03:11:00,
2013-01-31 19:16:00,41.1,29.9,30.27,ENE,77,1.0,2.0,64,0.00,,CLR,0.00,0.00,VWS V14.01,2013-02-01 03:16:00,
2013-01-31 19:21:00,40.6,29.8,30.27,West,276,3.0,4.0,65,0.00,,CLR,0.00,0.00,VWS V14.01,2013-02-01 03:21:00,
2013-01-31 19:26:00,40.1,29.7,30.27,West,276,1.0,2.0,66,0.00,,CLR,0.00,0.00,VWS V14.01,2013-02-01 03:26:00,
2013-01-31 19:31:00,39.6,29.2,30.28,West,277,0.0,1.0,66,0.00,,CLR,0.00,0.00,VWS V14.01,2013-02-01 03:31:00,
2013-01-31 19:36:00,39.1,28.7,30.28,West,276,2.0,3.0,66,0.00,,CLR,0.00,0.00,VWS V14.01,2013-02-01 03:36:00,
2013-01-31 19:41:00,38.5,28.5,30.28,West,277,3.0,3.0,67,0.00,,CLR,0.00,0.00,VWS V14.01,2013-02-01 03:41:00,
2013-01-31 19:46:00,38.1,28.1,30.28,West,277,2.0,2.0,67,0.00,,CLR,0.00,0.00,VWS V14.01,2013-02-01 03:46:00,
2013-01-31 19:51:00,37.8,28.2,30.28,West,276,1.0,2.0,68,0.00,,CLR,0.00,0.00,VWS V14.01,2013-02-01 03:51:00,
2013-01-31 19:56:00,37.4,28.2,30.29,West,277,2.0,2.0,69,0.00,,CLR,0.00,0.00,VWS V14.01,2013-02-01 03:56:00,
2013-01-31 20:01:00,37.0,28.1,30.29,West,277,0.0,0.0,70,0.00,,CLR,0.00,0.00,VWS V14.01,2013-02-01 04:01:00,
2013-01-31 20:06:00,36.9,27.7,30.29,West,277,0.0,0.0,69,0.00,,CLR,0.00,0.00,VWS V14.01,2013-02-01 04:06:00,
2013-01-31 20:11:00,36.7,27.5,30.30,West,277,0.0,0.0,69,0.00,,CLR,0.00,0.00,VWS V14.01,2013-02-01 04:11:00,
2013-01-31 20:16:00,36.3,27.1,30.30,West,277,0.0,0.0,69,0.00,,CLR,0.00,0.00,VWS V14.01,2013-02-01 04:16:00,
2013-01-31 20:21:00,35.6,26.5,30.30,West,277,0.0,0.0,69,0.00,,CLR,0.00,0.00,VWS V14.01,2013-02-01 04:21:00,
2013-01-31 20:26:00,35.1,26.7,30.30,West,277,0.0,0.0,71,0.00,,CLR,0.00,0.00,VWS V14.01,2013-02-01 04:26:00,
2013-01-31 20:31:00,34.5,25.7,30.30,West,277,0.0,0.0,70,0.00,,CLR,0.00,0.00,VWS V14.01,2013-02-01 04:31:00,
2013-01-31 20:36:00,34.2,26.1,30.30,West,277,0.0,0.0,72,0.00,,CLR,0.00,0.00,VWS V14.01,2013-02-01 04:36:00,
2013-01-31 20:41:00,34.1,26.0,30.30,West,277,0.0,1.0,72,0.00,,CLR,0.00,0.00,VWS V14.01,2013-02-01 04:41:00,
2013-01-31 20:46:00,33.7,25.6,30.30,West,277,0.0,0.0,72,0.00,,CLR,0.00,0.00,VWS V14.01,2013-02-01 04:46:00,
2013-01-31 20:51:00,33.2,25.5,30.31,West,277,0.0,0.0,73,0.00,,CLR,0.00,0.00,VWS V14.01,2013-02-01 04:51:00,
2013-01-31 20:56:00,33.2,25.8,30.30,West,277,0.0,0.0,74,0.00,,CLR,0.00,0.00,VWS V14.01,2013-02-01 04:56:00,
2013-01-31 21:00:00,33.2,26.1,30.30,West,277,2.0,3.0,75,0.00,,CLR,0.00,0.00,VWS V14.01,2013-02-01 05:00:00,
2013-01-31 21:01:00,33.2,26.1,30.30,West,276,2.0,3.0,75,0.00,,CLR,0.00,0.00,VWS V14.01,2013-02-01 05:01:00,
2013-01-31 21:06:00,33.2,26.5,30.31,West,277,1.0,2.0,76,0.00,,CLR,0.00,0.00,VWS V14.01,2013-02-01 05:06:00,
2013-01-31 21:11:00,33.0,26.3,30.30,West,277,0.0,0.0,76,0.00,,CLR,0.00,0.00,VWS V14.01,2013-02-01 05:11:00,
2013-01-31 21:16:00,33.3,27.5,30.30,West,277,1.0,1.0,79,0.00,,CLR,0.00,0.00,VWS V14.01,2013-02-01 05:16:00,
2013-01-31 21:21:00,33.4,27.0,30.31,West,277,0.0,0.0,77,0.00,,CLR,0.00,0.00,VWS V14.01,2013-02-01 05:21:00,
2013-01-31 21:26:00,33.4,27.0,30.31,West,277,0.0,0.0,77,0.00,,CLR,0.00,0.00,VWS V14.01,2013-02-01 05:26:00,
2013-01-31 21:31:00,33.3,26.9,30.31,West,277,0.0,1.0,77,0.00,,CLR,0.00,0.00,VWS V14.01,2013-02-01 05:31:00,
2013-01-31 21:36:00,33.2,27.1,30.31,West,277,1.0,2.0,78,0.00,,CLR,0.00,0.00,VWS V14.01,2013-02-01 05:36:00,
2013-01-31 21:41:00,33.1,27.0,30.31,West,277,1.0,2.0,78,0.00,,CLR,0.00,0.00,VWS V14.01,2013-02-01 05:41:00,
2013-01-31 21:46:00,33.0,26.6,30.31,West,277,1.0,1.0,77,0.00,,CLR,0.00,0.00,VWS V14.01,2013-02-01 05:46:00,
2013-01-31 21:51:00,32.8,26.4,30.31,West,277,0.0,1.0,77,0.00,,CLR,0.00,0.00,VWS V14.01,2013-02-01 05:51:00,
2013-01-31 21:56:00,32.6,25.9,30.31,West,277,0.0,0.0,76,0.00,,CLR,0.00,0.00,VWS V14.01,2013-02-01 05:56:00,
2013-01-31 22:01:00,32.3,25.9,30.31,West,277,0.0,1.0,77,0.00,,CLR,0.00,0.00,VWS V14.01,2013-02-01 06:01:00,
2013-01-31 22:06:00,32.1,26.0,30.31,West,277,0.0,0.0,78,0.00,,CLR,0.00,0.00,VWS V14.01,2013-02-01 06:06:00,
2013-01-31 22:11:00,31.8,25.7,30.31,West,277,2.0,2.0,78,0.00,,CLR,0.00,0.00,VWS V14.01,2013-02-01 06:11:00,
2013-01-31 22:16:00,31.7,25.9,30.31,West,277,1.0,2.0,79,0.00,,CLR,0.00,0.00,VWS V14.01,2013-02-01 06:16:00,
2013-01-31 22:21:00,31.8,26.6,30.31,West,277,2.0,3.0,81,0.00,,CLR,0.00,0.00,VWS V14.01,2013-02-01 06:21:00,
2013-01-31 22:26:00,31.9,26.4,30.31,West,277,1.0,2.0,80,0.00,,CLR,0.00,0.00,VWS V14.01,2013-02-01 06:26:00,
2013-01-31 22:31:00,31.7,26.2,30.31,West,277,1.0,1.0,80,0.00,,CLR,0.00,0.00,VWS V14.01,2013-02-01 06:31:00,
2013-01-31 22:36:00,31.6,26.1,30.31,West,277,1.0,2.0,80,0.00,,CLR,0.00,0.00,VWS V14.01,2013-02-01 06:36:00,
2013-01-31 22:41:00,31.5,26.4,30.31,WNW,293,3.0,3.0,81,0.00,,CLR,0.00,0.00,VWS V14.01,2013-02-01 06:41:00,
2013-01-31 22:46:00,31.6,26.5,30.31,WNW,298,0.0,1.0,81,0.00,,CLR,0.00,0.00,VWS V14.01,2013-02-01 06:46:00,
2013-01-31 22:51:00,31.7,26.5,30.31,WNW,298,0.0,1.0,81,0.00,,CLR,0.00,0.00,VWS V14.01,2013-02-01 06:51:00,
2013-01-31 22:56:00,31.8,26.6,30.32,WNW,298,0.0,0.0,81,0.00,,CLR,0.00,0.00,VWS V14.01,2013-02-01 06:56:00,
2013-01-31 23:01:00,31.5,26.0,30.32,WNW,298,1.0,1.0,80,0.00,,CLR,0.00,0.00,VWS V14.01,2013-02-01 07:01:00,
2013-01-31 23:06:00,31.1,26.0,30.31,WNW,298,1.0,2.0,81,0.00,,CLR,0.00,0.00,VWS V14.01,2013-02-01 07:06:00,
2013-01-31 23:11:00,31.1,26.3,30.31,WNW,298,0.0,1.0,82,0.00,,CLR,0.00,0.00,VWS V14.01,2013-02-01 07:11:00,
2013-01-31 23:16:00,31.2,26.4,30.32,WNW,298,0.0,1.0,82,0.00,,CLR,0.00,0.00,VWS V14.01,2013-02-01 07:16:00,
2013-01-31 23:21:00,31.2,26.4,30.32,WNW,298,0.0,0.0,82,0.00,,CLR,0.00,0.00,VWS V14.01,2013-02-01 07:21:00,
2013-01-31 23:26:00,31.4,26.8,30.32,WNW,298,1.0,2.0,83,0.00,,CLR,0.00,0.00,VWS V14.01,2013-02-01 07:26:00,
2013-01-31 23:31:00,31.4,26.5,30.32,WNW,298,0.0,1.0,82,0.00,,CLR,0.00,0.00,VWS V14.01,2013-02-01 07:31:00,
2013-01-31 23:36:00,31.3,26.5,30.32,WNW,298,0.0,1.0,82,0.00,,CLR,0.00,0.00,VWS V14.01,2013-02-01 07:36:00,
2013-01-31 23:41:00,31.0,25.9,30.32,WNW,298,0.0,0.0,81,0.00,,CLR,0.00,0.00,VWS V14.01,2013-02-01 07:41:00,
2013-01-31 23:46:00,30.6,25.2,30.32,WNW,298,0.0,0.0,80,0.00,,CLR,0.00,0.00,VWS V14.01,2013-02-01 07:46:00,
2013-01-31 23:51:00,30.4,25.0,30.32,WNW,298,0.0,0.0,80,0.00,,CLR,0.00,0.00,VWS V14.01,2013-02-01 07:51:00,
2013-01-31 23:56:00,30.2,24.8,30.32,WNW,298,0.0,1.0,80,0.00,,CLR,0.00,0.00,VWS V14.01,2013-02-01 07:56:00,